www.pogodaiklimat.ru

Погода и климат >> Архив погоды >> Россия >> Эвенкия >> Тура


ПОГОДА в Туре

АРХИВ ПОГОДЫ в Туре

Время (UTC), дата Ветер
(напр.,м/с)
 
Видим.   Явления Облачность Т
(С)
Тd
(С)
f
(%)
Тe
(С)
Тes
(С)
Комфортность P
(гПа)
Po
(гПа)
Тmin
(С)
Tmax
(С)
R
(мм)
S
(см)
15 14.02 штиль 0 н/о ясно -37.3 -40.1 75 -37 -37 опасность
обморожения
1027.1 999.2
18 14.02 штиль 0 н/о ясно -40.6 -43.3 75 -41 -41 опасность
обморожения
1027.7 999.3
21 14.02 штиль 0 н/о дымка ясно -41.7 -44.4 75 -42 -42 опасность
обморожения
1029.3 1000.8
00 15.02 штиль 0 н/о дымка ясно -42.2 -45.0 74 -42 -42 опасность
обморожения
1030.3 1001.8 -43.8 43
03 15.02 штиль 0 4000 м слабый снег 10/0
[Cs]
-42.2 -45.0 74 -42 -42 опасность
обморожения
1031.4 1002.7
06 15.02 штиль 0 10 км слабый снег 10/3 1000 м
[Sc Cs]
-36.4 -39.4 74 -36 -36 опасность
обморожения
1030.7 1002.7
09 15.02 штиль 0 10 км слабый снег 10/8 1000 м
[Sc Ac As]
-33.7 -36.6 75 -34 -34 опасность
обморожения
1030.9 1003.2
12 15.02 В 1 н/о {снег} 8/8 1000 м
[Sc]
-35.4 -38.4 74 -40 -40 опасность
обморожения
1031.3 1003.5 -33.7 0.3
15 15.02 СВ 1 н/о слабый снег 10/0
[Ac As Cs]
-34.0 -36.8 76 -39 -39 опасность
обморожения
1030.9 1003.2
18 15.02 ЮВ 2 н/о слабый снег 10/5 1000 м
[Sc Ac As]
-33.0 -36.0 74 -41 -41 опасность
обморожения
1030.1 1002.5
21 15.02 штиль 0 н/о {снег} 4/0
[Ac As]
-33.6 -36.6 74 -34 -34 опасность
обморожения
1029.3 1001.7
00 16.02 штиль 0 н/о слабый снег 10/0
[Ac As]
-32.6 -35.5 75 -33 -33 опасность
обморожения
1028.7 1001.2 -35.4 0.3 41
03 16.02 В 3 10 км слабый снег 10/0
[Ac As]
-31.5 -34.5 75 -41 -41 опасность
обморожения
1027.9 1000.5
06 16.02 В 4 20 км слабый снег 10/4 1000 м
[Sc Ac As]
-28.5 -31.7 74 -39 -39 опасность
обморожения
1026.4 999.4
09 16.02 ЮВ 2 20 км {ливн. осадки, снег} 8/3 1000 м
[Sc Ac trans]
-26.5 -29.7 74 -33 -33 опасность
обморожения
1025.4 998.7
12 16.02 В 1 н/о {ливн. осадки, снег} 6/3 1000 м
[Sc Ac trans]
-27.7 -30.1 80 -32 -32 опасность
обморожения
1024.9 998.0 -26.5 0.2
15 16.02 В 1 н/о 8/4 1000 м
[Sc Ac trans]
-27.4 -29.8 80 -31 -31 опасность
обморожения
1023.0 996.3
18 16.02 штиль 0 н/о 4/3 1000 м
[Sc Ac trans]
-28.9 -31.4 79 -29 -29 1021.9 995.0
21 16.02 штиль 0 н/о 6/0
[Ac trans Ci fib]
-31.0 -33.4 79 -31 -31 опасность
обморожения
1021.1 994.0
00 17.02 штиль 0 н/о 9/0
[Ac trans Ci fib]
-32.3 -34.6 80 -32 -32 опасность
обморожения
1020.3 993.1 -32.5 41
03 17.02 В 2 10 км слабый снег 10/0
[Ac As]
-30.3 -32.8 79 -38 -38 опасность
обморожения
1019.1 992.2 -32.8
06 17.02 В 1 4000 м слабый снег 10/0
[Ac As]
-27.3 -29.8 79 -31 -31 опасность
обморожения
1017.2 990.7
09 17.02 ЮВ 1 20 км слабый снег 10/0
[Cs]
-24.6 -27.9 74 -28 -28 1015.2 988.9
12 17.02 В 1 н/о слабый снег 10/0
[Ac As Cs]
-27.7 -30.1 80 -32 -32 опасность
обморожения
1014.9 988.3 -24.4 0.3
15 17.02 штиль 0 н/о слабый снег 10/0
[Ac As]
-27.5 -30.0 79 -28 -28 1012.9 986.5
18 17.02 штиль 0 н/о слабый снег 10/0
[Ac As]
-26.0 -28.4 80 -26 -26 1011.8 985.5
21 17.02 С 1 н/о слабый снег 10/0
[Ac As Cs]
-27.4 -29.8 80 -31 -31 опасность
обморожения
1011.2 984.8
00 18.02 штиль 0 н/о {снег} 3/0
[Ac trans]
-31.1 -33.4 80 -31 -31 опасность
обморожения
1011.5 984.7 -31.4 0.5 41
03 18.02 штиль 0 10 км слабый снег 10/0
[Ac As]
-31.3 -33.6 80 -31 -31 опасность
обморожения
1010.7 983.9 -32.1
06 18.02 ЮВ 2 20 км {снег} 3/0
[Ci fib]
-25.5 -29.4 70 -32 -31 опасность
обморожения
1009.1 982.9
09 18.02 ЮВ 2 20 км 9/0
[Ac As Ci sp]
-24.6 -27.9 74 -31 -31 опасность
обморожения
1007.7 981.7
12 18.02 ЮВ 2 н/о слабый снег 10/0
[Ac As]
-23.9 -26.4 80 -30 -30 1006.4 980.5 -23.2 0.2
15 18.02 ЮВ 1 н/о слабый снег 10/0
[Ac As Ci fib]
-24.2 -26.7 80 -28 -28 1005.8 979.9
18 18.02 штиль 0 н/о {снег} 8/0
[Ac trans Cs]
-26.6 -29.0 80 -27 -27 1006.7 980.4
21 18.02 С 1 н/о 3/0
[Ci fib]
-27.6 -30.0 80 -31 -31 опасность
обморожения
1007.8 981.4
00 19.02 СЗ 1 н/о слабый ливневой снег 10/8 600 м
[Cb cap Ac trans]
-26.9 -29.3 80 -31 -31 опасность
обморожения
1008.7 982.4 -28.9 0.3 41
03 19.02 СЗ 2 20 км в посл. час ливневой снег 10/3 600 м
[Cb cap Ac trans Cc]
-25.2 -27.7 80 -32 -32 опасность
обморожения
1009.6 983.4
06 19.02 З 2 20 км {ливн. осадки} 10/1 600 м
[Cb cap Ac lent Ci fib]
-16.3 -18.9 80 -22 -21 1009.7 984.5
09 19.02 З 2 20 км 10/3 1000 м
[Sc Ac As]
-13.4 -16.9 75 -18 -18 1010.1 985.1
12 19.02 штиль 0 н/о слабый снег 10/0
[Ac As]
-14.1 -16.8 80 -14 -14 1011.0 985.9 -13.4
15 19.02 штиль 0 н/о слабый снег 10/0
[Ac As]
-17.2 -19.1 85 -17 -17 1010.7 985.4
18 19.02 штиль 0 н/о слабый снег 10/0
[Ac As]
-19.6 -21.5 85 -20 -20 1011.8 986.2
21 19.02 СЗ 1 н/о слабый снег 10/0
[Ac As]
-23.0 -24.9 84 -26 -26 1014.0 988.0
00 20.02 штиль 0 н/о {снег} 6/0
[Ac As Ci sp]
-24.5 -26.4 84 -25 -25 1015.2 989.0 -24.5 0.7 41
03 20.02 В 1 10 км слабый снег 10/0
[Ac As Cs]
-24.1 -26.7 79 -28 -27 1016.9 990.7 -25.7
06 20.02 ЮВ 2 20 км {снег} 10/0
[Ac trans Cs]
-20.3 -23.6 75 -26 -25 1016.5 990.7
09 20.02 С 1 20 км 8/4 1000 м
[Sc Ac trans Ci sp]
-19.0 -22.3 75 -22 -22 1016.7 991.0
12 20.02 ЮВ 1 н/о 5/3 1000 м
[Sc Ac trans]
-21.9 -24.5 79 -25 -25 1017.7 991.7 -18.2
15 20.02 штиль 0 н/о 3/0
[Ci fib]
-25.3 -27.2 84 -25 -25 1018.0 991.7
18 20.02 штиль 0 н/о ясно -28.4 -30.8 80 -28 -28 1018.9 992.3
21 20.02 штиль 0 н/о ясно -30.2 -32.6 79 -30 -30 1019.8 992.8
00 21.02 С 1 н/о 5/0
[Ci fib]
-31.8 -34.1 80 -36 -36 опасность
обморожения
1020.2 993.0 -32.2 41
03 21.02 штиль 0 20 км 5/0
[Ci fib]
-31.8 -34.1 80 -32 -31 опасность
обморожения
1020.6 993.4 -32.6
06 21.02 ЮВ 2 20 км 4/0
[Ci fib]
-25.2 -28.4 75 -32 -30 опасность
обморожения
1018.4 992.1

 

Местоположение метеостанции Тура (Эвенкия, Россия): широта 64.33 долгота 100.40 высота над уровнем моря 624 м.

В архиве по умолчанию представлена погода в Туре за последнюю неделю. Архивные данные за месяц целиком и за предыдущие месяцы, начиная с января 2011 года, Вы можете получить, выбрав интересующий диапазон дат из раскрывающегося списка и нажав кнопку "Ввод!".

Внимание! Время в таблицах - всемирное. Для получения местного времени необходимо прибавить поправку, которая в Туре равна 7 ч.

Смотрите также архив погоды в соседних городах и на ближайших метеорологических станциях:

Погода в Тембенчи (Эвенкия, Россия) (99 км)
Погода в Кербо (Эвенкия, Россия) (182 км)
Погода в Кислокане (Эвенкия, Россия) (190 км)
Погода в Стрелке-Чуне (Эвенкия, Россия) (311 км)
Погода в Тутончанах (Эвенкия, Россия) (320 км)
Погода в Муторае (Эвенкия, Россия) (334 км)
Погода в Байките (Эвенкия, Россия) (359 км)
Погода в Агате (Эвенкия, Россия) (426 км)
Погода в Усть-Камо (Эвенкия, Россия) (428 км)
Погода в Ванаваре (Эвенкия, Россия) (456 км)

Пояснения к столбцам:

Ветер - указаны скорость ветра в м/с - средняя за 10 мин, порывы в срок и между сроками (в фигурных скобках) и направление, откуда дует ветер: С - северный, СВ - северо-восточный, В - восточный, ЮВ - юго-восточный, Ю - южный, ЮЗ - юго-западный, З - западный, СЗ - северо-западный.
Видимость - горизонтальная дальность видимости в метрах или километрах. При видимости от 1 до 10 км при отсутствии осадков обычно наблюдается дымка, при ухудшении видимости до 1 км и менее - туман. В сухую погоду видимость может ухудшаться дымом, пылью или мглою.
Явления - указаны атмосферные явления, наблюдавшиеся в срок или в последний час перед сроком; фигурными скобками обозначены явления, наблюдавшиеся между сроками (за 1-3 часа до срока); квадратными скобками обозначены град или гололедные отложения с указанием их диаметра в мм.
Облачность - указаны через наклонную черту общая и нижняя облачность в баллах и высота нижней границы облаков в метрах; квадратными скобками обозначены формы облаков: Ci - перистые, Cs - перисто-слоистые, Cc - перисто-кучевые, Ac - высококучевые, As - высокослоистые, Sc - слоисто-кучевые, Ns - слоисто-дождевые, Cu - кучевые, Cb - кучево-дождевые. Подробнее классификацию облаков см. в Атласе облаков (PDF).
T - Температура воздуха - температура, измеренная на высоте 2 м над землей.
Td - Температура точки росы - температура, при понижении до которой содержащийся в воздухе водяной пар достигнет насыщения.
f - Относительная влажность воздуха - влажноcть воздуха, измеренная на высоте 2 м над землей.
Te - Эффективная температура - температура, которую ощущает одетый по сезону человек в тени. Характеристика душности погоды. При расчете учитывается влияние влажности воздуха и скорости ветра на теплоощущения человека.
Tes - Эффективная температура на солнце - температура, которую ощущает человек, с поправкой на солнечный нагрев. Характеристика знойности погоды. Зависит от высоты солнца над горизонтом, облачности и скорости ветра. Ночью, в пасмурную погоду, а также при ветре 12 м/с и более поправка равна нулю.
P - Атмосферное давление - приведенное к уровню моря атмосферное давление.
Po - Атмосферное давление - измеренное на уровне метеостанции атмосферное давление.
Tmin - Минимальная температура - минимум температуры воздуха на высоте 2 м над землей.
Tmax - Максимальная температура - максимум температуры воздуха на высоте 2 м над землей.
R - Количество осадков - Количество выпавших осадков, мм. При наведении курсора мыши на число - период времени, за который выпало указанное количество осадков.
S - Снежный покров - Высота снежного покрова, см. При наведении курсора мыши на число - состояние снежного покрова и степень покрытия местности в баллах.